DMSP 5D-2 F11 DEB, 28302

Orbit data source: Space-Track

DMSP 5D-2 F11 DEB, 28302 is space debris in SSO originally from a launch on Thu, 28 Nov 1991 UTC launched from the Air Force Western Test Range (AFWTR). Debris objects in space refer to the collection of defunct objects orbiting the Earth. Examples of debris include non-operational satellites, rocket bodies, and fragments generated from explosions, collisions, or faulty payload assembly.

Loading next visibility...
Identifier
28302, 1991-082P
Orbit
SSO
Country
Flag of USUS
Related business
Manufacturer
Unknown
Mission
Spacecraft
Bus & Motor
Unknown
Mass
Unknown
Launch date (UTC)
1991-11-28 (35 years ago)
Launch vehicle
Unknown
Launch site
Air Force Western Test Range (AFWTR)
Object type
Payload
Rocket body
Debris
Shape & HBR
Unknown shape, 0.1 m
Radar Cross Section
Medium (>0.1 m² and <1 m²)

Expand to show TLE details & history
Last TLE update: 1 day ago

TLE from 1 day ago
0 DMSP 5D-2 F11 DEB
1 28302U 91082P   26208.08913654  .00001426  00000-0  60179-3 0  9998
2 28302  98.6341 240.9710 0029996 126.3644 234.0311 14.26931915152207
Epoch: 2026-07-27T02:08Z
TLE epoch observation values (Epoch: 2026-07-27T02:08:21.397Z)
Latitude
-0.00001°
Longitude
-95.89587°
Altitude
817.626 km
Speed
7.438 km/s
True Right ascension
16h 03m 53s
True Declination
0° 00' 00"
Sunlit
Object was in daylight at epoch
Visualization orbit readout
Latitude
Unknown
Longitude
Unknown
Altitude
Unknown
Speed
Unknown
Apparent Right ascension
Unknown
Apparent Declination
Unknown
Sunlit
N/A
Visualization observer readout
Local Sidereal Time
17:11:31
Azimuth
Unknown
Elevation
Unknown
Doppler factor
Unknown
Orbital elements
Apogee altitude
820.679 km
Perigee altitude
777.621 km
Semi-major axis
7,177.287 km
Eccentricity
0.003
Inclination
98.6341°
RAAN
240.971°
Arg. of periapsis
126.3644°
True anomaly
233.75352°
Mean anomaly
234.0311°
Eccentric anomaly
233.89225°
Mean motion
3.56946 °/min
Orbital period
100.86 mins
BSTAR
0.00060179
Loading maneuver chart data...
Computing Atmospheric mass density...

Documentation

Showing up to 5 results
|